{"data":{"norad_id":68164,"epoch":"2026-05-25T00:38:54.665376Z","epoch_age_seconds":69783,"freshness":"FRESH","line1":"1 68164U 26049Y   26145.02702159  .00012025  00000+0  37419-3 0  9996","line2":"2 68164  97.2869 166.6480 0000358  16.4343 343.6911 15.33447671 11343","mean_motion":15.33447671,"eccentricity":3.58e-5,"inclination_deg":97.2869,"raan_deg":166.648,"arg_perigee_deg":16.4343,"mean_anomaly_deg":343.6911,"bstar":0.00037419,"rev_number":1134,"period_min":93.906041088506,"perigee_km":465.29022400713,"apogee_km":465.78023093862,"semimajor_km":6843.6722274729,"source":"CELESTRAK","updated_at":"2026-05-25T13:38:21.851172Z"}}